Pagina principală
METAR-TAF:

METAR-TAF

Aeroporturi :

Challis Airport

Challis, Idaho, Statele Unite ale Americii

Latitudine: 44-31-22N, longitudine: 114-12-54W, elevație: 1546 m

Observații meteo curente

Raportul a fost făcut în urmă cu 44 de minute, la 03:55 UTC
Vânt 3 kt din direcții variabile
Temperatură 28°C
Umiditate 17%
Presiune 1020 hPa
Vizibilitate: 16.1 km
Cer senin

METAR: KLLJ 140355Z AUTO VRB03KT 10SM CLR 28/01 A3012 RMK AO2 SLP119 T02830006

Ora: 22:39 (04:39 UTC)


TAF: lipsă

Observații și prognoze meteo pentru peste 4.000 de aeroporturi (rapoarte METAR și TAF).

Stațiile disponibile sunt reprezentate pe hartă prin puncte galbene și roșii.

Țineți indicatorul mouse-ului pe punctul dorit pentru a vedea denumirea stației.

Apoi, faceți clic pentru a vedea observațiile și prognozele meteorologice.

Pentru a schimba harta: Pentru mărire, faceți clic pe butoanele verzi cu cruce neagră; pentru micșorare, pe butonul verde cu o liniuță; pentru hărți învecinate, pe săgețile verzi.


METAR-TAF: